Wind_Speed
56 55 55 55 56 57 59 61 63 63 63 63 63 63 63 64 64 63 62 61 59 57 56 55 54 54 54 53 53 53 53 54 54 54 54 55 57 60
56 56 56 57 59 60 62 63 65 66 66 63 61 59 58 59 59 58 57 54 52 51 50 49 49 49 49 49 49 50 50 51 50 50 51 52 52 56
57 58 58 60 61 62 62 63 63 63 62 58 56 54 52 51 51 50 48 47 45 44 43 42 43 44 44 44 45 46 46 46 46 47 48 50 51 53
58 59 60 61 61 60 59 58 56 55 53 50 48 46 44 44 43 42 41 40 39 37 36 36 36 37 38 39 40 41 42 43 44 45 47 48 49 51
59 60 59 58 57 55 52 50 48 47 45 42 40 39 38 37 37 36 35 34 32 30 30 30 31 32 34 35 36 37 39 40 41 42 45 47 48 49
58 57 56 53 50 47 44 43 41 40 38 36 34 32 31 31 31 29 28 27 25 25 25 26 27 29 30 32 33 35 36 38 40 42 43 45 47 49
54 52 50 47 44 42 40 38 37 34 31 29 26 25 25 24 23 21 21 20 19 19 20 22 24 26 28 30 32 33 35 36 38 39 41 43 45 47
50 46 44 42 40 39 37 34 31 28 26 23 21 19 19 17 16 15 14 14 14 15 16 18 21 23 26 28 31 33 35 37 38 40 41 42 44 45
44 42 40 39 37 34 31 27 24 21 18 15 14 14 11 10 9 9 8 9 11 13 14 16 18 21 24 26 29 32 34 37 39 41 43 44 44 45
40 38 35 33 30 27 22 19 16 13 10 9 8 7 6 5 4 4 6 7 9 11 12 14 16 18 21 24 26 29 32 35 38 39 42 44 45 45
36 33 30 26 23 18 14 11 9 6 4 4 3 2 1 1 1 2 3 5 6 8 10 11 13 15 17 19 22 24 27 30 34 38 41 42 45 46
31 28 23 18 14 10 7 4 2 1 1 1 2 3 3 3 3 2 2 3 4 5 7 8 9 10 11 14 16 19 22 25 29 34 37 40 42 44
24 19 14 9 5 3 2 3 4 5 5 5 6 6 5 4 4 2 1 0 2 3 4 4 5 5 6 7 8 11 14 18 23 29 33 37 39 41
16 12 7 4 4 6 7 7 7 7 7 8 8 7 6 5 5 3 3 3 3 3 3 2 1 2 3 3 3 5 9 13 18 24 29 34 37 40
10 7 5 7 9 9 9 10 10 9 9 9 8 7 7 7 6 6 7 7 8 8 8 8 8 9 10 10 10 10 12 16 20 25 29 33 36 39
7 6 8 11 12 12 12 11 10 9 9 9 8 8 8 9 9 9 10 11 12 12 12 14 15 16 16 16 16 16 18 21 24 28 31 34 37 39
6 8 10 12 12 12 12 11 10 9 9 9 9 10 10 11 11 13 14 15 15 16 17 18 19 20 21 21 21 22 23 25 27 30 32 35 38 41
8 10 12 13 13 12 12 11 11 10 10 10 11 11 12 13 14 15 17 17 18 19 20 22 23 23 23 23 24 24 24 25 27 29 31 33 37 40
10 12 13 13 12 12 12 11 10 10 11 11 12 13 14 16 17 17 18 19 19 20 21 23 24 25 24 24 25 26 26 26 26 27 29 31 33 37
12 13 13 13 13 12 11 11 11 11 11 13 14 15 17 18 18 19 19 20 20 21 21 23 25 26 26 25 25 28 28 26 26 27 27 29 30 32
13 13 13 13 13 12 12 12 12 12 13 14 16 18 19 19 19 19 19 20 20 19 20 22 24 25 25 26 26 27 28 28 28 29 29 29 29 31
13 13 13 13 12 12 12 12 13 13 15 17 18 19 19 19 19 19 19 18 18 19 19 19 21 23 24 24 24 25 26 26 26 27 28 28 28 27
13 13 13 12 12 12 12 12 13 15 17 18 19 20 20 20 19 19 18 18 18 18 18 17 18 20 21 22 22 22 22 23 23 22 22 23 24 23
Wind_Direction
293 292 291 290 289 288 287 286 285 284 283 283 283 281 280 278 276 275 273 272 271 269 266 263 260 256 253 251 247 244 243 242 241 241 239 237 237 235
294 293 292 292 291 290 289 289 288 287 286 285 284 282 279 277 275 274 272 271 270 267 264 260 256 252 249 247 244 242 241 240 239 237 234 233 232 231
295 294 294 293 293 292 291 291 289 288 287 286 284 282 279 276 274 273 272 270 268 265 261 256 252 248 246 244 241 239 237 236 235 233 231 229 228 227
296 296 296 296 295 294 293 292 291 289 289 287 285 282 279 276 274 273 272 270 268 264 259 252 247 243 241 239 237 234 233 233 232 231 228 227 226 225
299 299 299 298 296 295 294 292 291 291 290 288 285 282 279 276 273 273 272 270 266 261 255 248 243 240 238 236 233 231 231 230 229 229 228 226 225 224
302 301 300 299 297 295 294 293 293 293 292 290 287 282 278 275 274 272 269 266 262 257 250 243 239 237 235 233 232 231 230 228 228 227 226 225 224 223
304 302 301 299 298 296 295 295 294 293 293 291 287 283 279 276 274 270 267 262 256 250 243 239 236 235 235 233 232 231 230 229 229 228 226 225 224 223
305 303 302 300 299 298 296 295 294 292 291 289 286 283 280 278 272 267 260 252 246 242 239 237 237 237 236 236 236 234 233 232 231 228 227 225 223 223
306 305 303 302 300 298 297 295 293 292 290 288 285 283 281 275 266 258 251 242 241 239 240 243 243 242 241 240 239 237 236 234 232 229 225 224 222 221
309 307 305 304 302 300 297 295 294 291 287 285 285 283 279 269 261 250 242 239 240 241 243 246 247 247 246 244 242 240 238 236 232 228 225 223 221 220
312 311 309 306 303 299 296 294 293 286 279 278 284 280 269 223 219 218 227 231 239 245 248 251 253 254 251 247 245 241 238 234 230 227 224 221 219 217
316 315 313 309 306 304 302 298 288 177 130 89 98 106 110 121 139 161 195 218 245 260 260 260 258 256 252 248 247 244 237 231 226 221 217 214 213 211
321 322 322 323 326 345 53 97 106 107 97 97 100 100 102 109 115 115 122 51 309 288 282 267 255 249 246 243 240 230 224 218 214 209 207 205 204 202
332 336 348 22 67 89 96 97 101 98 99 101 99 98 96 98 97 88 82 64 45 47 71 85 126 140 115 94 140 173 180 181 186 190 193 192 192 191
348 8 51 82 93 94 93 97 98 98 101 102 98 93 90 90 85 86 86 82 80 80 82 80 85 91 90 92 103 118 139 150 157 165 170 173 177 179
20 63 88 96 97 96 96 97 95 96 99 100 97 92 91 87 87 92 91 91 88 87 87 85 88 88 90 95 101 109 123 135 142 150 156 161 165 168
68 93 100 101 100 98 96 94 92 94 98 97 96 95 92 91 96 96 95 94 90 88 89 88 90 92 94 99 103 107 116 126 134 141 149 154 158 162
96 105 107 105 102 99 96 92 91 93 95 96 98 99 99 101 104 102 100 97 91 88 87 89 91 94 97 101 104 108 115 122 131 137 145 152 157 160
108 112 112 109 104 100 96 92 91 93 97 100 102 105 107 109 109 106 103 99 93 89 87 89 92 94 97 102 107 111 115 121 128 134 141 149 157 161
115 116 115 111 105 99 93 90 93 97 103 108 110 113 114 114 112 110 107 101 96 93 93 93 95 98 100 103 108 113 118 123 129 135 141 148 154 158
119 119 115 111 104 96 89 89 94 100 108 114 116 119 119 117 115 114 111 106 102 98 95 96 97 100 103 106 108 110 114 119 125 131 137 143 149 153
121 120 116 110 103 95 90 90 96 103 112 118 121 123 122 121 118 116 113 110 107 103 101 100 102 104 106 109 110 112 114 118 124 131 135 139 145 151
120 119 115 110 102 94 90 90 97 107 116 121 124 124 124 124 122 117 113 110 108 105 103 104 105 106 108 111 114 116 118 120 123 128 134 140 146 152
Height
5653 5648 5642 5636 5631 5625 5620 5614 5609 5605 5603 5597 5591 5585 5582 5579 5577 5576 5575 5575 5576 5576 5577 5577 5579 5581 5584 5589 5594 5599 5604 5610 5616 5622 5629 5636 5643 5651
5639 5634 5628 5621 5615 5609 5603 5597 5590 5585 5581 5578 5571 5566 5562 5559 5557 5556 5556 5557 5557 5557 5558 5559 5562 5565 5569 5573 5578 5584 5590 5596 5602 5608 5615 5622 5630 5638
5625 5619 5612 5605 5599 5591 5585 5578 5572 5565 5561 5558 5552 5548 5544 5542 5540 5539 5540 5540 5541 5541 5542 5544 5547 5550 5555 5559 5565 5571 5577 5583 5589 5595 5602 5610 5617 5626
5610 5603 5596 5588 5581 5574 5567 5560 5554 5548 5543 5540 5536 5532 5529 5527 5526 5526 5526 5526 5527 5527 5529 5531 5534 5539 5543 5548 5553 5559 5565 5571 5577 5584 5591 5598 5606 5614
5594 5587 5579 5571 5564 5557 5551 5545 5539 5534 5529 5526 5523 5519 5517 5515 5514 5514 5514 5514 5515 5516 5518 5521 5525 5529 5534 5539 5544 5550 5555 5562 5568 5573 5580 5587 5594 5602
5578 5570 5563 5555 5549 5543 5537 5532 5527 5522 5518 5514 5512 5509 5507 5505 5505 5505 5505 5505 5507 5508 5510 5513 5517 5521 5526 5531 5536 5541 5546 5552 5558 5564 5570 5577 5584 5592
5563 5555 5548 5541 5536 5530 5526 5521 5516 5512 5509 5505 5503 5501 5499 5498 5498 5498 5498 5499 5500 5502 5505 5508 5511 5515 5519 5523 5528 5532 5537 5543 5548 5554 5560 5567 5574 5582
5550 5542 5535 5529 5524 5519 5514 5510 5507 5504 5501 5499 5497 5495 5494 5493 5493 5493 5494 5495 5497 5499 5501 5504 5506 5509 5512 5516 5520 5524 5528 5533 5538 5544 5551 5557 5565 5573
5537 5531 5524 5518 5513 5509 5505 5502 5499 5497 5495 5494 5492 5491 5491 5490 5490 5491 5492 5493 5495 5496 5498 5500 5502 5504 5506 5509 5511 5514 5518 5522 5527 5533 5540 5547 5555 5563
5527 5520 5514 5509 5504 5500 5497 5495 5494 5493 5492 5491 5490 5489 5489 5489 5489 5490 5491 5492 5493 5494 5495 5496 5497 5498 5499 5501 5502 5505 5507 5511 5516 5522 5528 5536 5544 5553
5517 5511 5506 5501 5497 5494 5492 5491 5491 5490 5490 5489 5489 5489 5489 5489 5489 5490 5491 5491 5492 5492 5492 5493 5493 5493 5493 5493 5494 5495 5497 5500 5504 5510 5517 5525 5533 5543
5510 5504 5499 5496 5493 5491 5490 5490 5489 5490 5490 5490 5490 5490 5490 5490 5490 5491 5491 5491 5491 5491 5490 5490 5489 5488 5487 5487 5487 5487 5488 5490 5494 5499 5507 5515 5524 5534
5506 5500 5496 5493 5491 5490 5490 5490 5490 5491 5491 5491 5492 5492 5492 5492 5492 5492 5492 5492 5491 5490 5489 5487 5486 5485 5483 5482 5481 5481 5481 5483 5486 5492 5499 5508 5517 5528
5503 5499 5496 5493 5492 5492 5492 5492 5493 5493 5494 5494 5495 5495 5495 5494 5494 5494 5493 5492 5491 5490 5488 5487 5485 5483 5482 5480 5479 5479 5479 5480 5484 5489 5496 5504 5514 5525
5502 5499 5497 5495 5495 5495 5495 5496 5496 5497 5497 5498 5498 5498 5497 5497 5497 5496 5495 5495 5493 5492 5490 5488 5486 5485 5483 5482 5481 5481 5482 5483 5486 5491 5498 5506 5515 5525
5503 5501 5499 5499 5499 5499 5499 5500 5500 5500 5501 5501 5501 5501 5501 5500 5500 5499 5499 5498 5497 5495 5494 5491 5490 5489 5488 5487 5487 5487 5488 5490 5493 5498 5505 5512 5520 5528
5504 5503 5503 5503 5503 5503 5503 5504 5504 5504 5504 5504 5504 5504 5504 5504 5504 5504 5503 5503 5502 5500 5499 5497 5496 5495 5495 5495 5495 5496 5497 5500 5503 5507 5513 5520 5526 5534
5507 5506 5506 5506 5507 5507 5507 5508 5508 5507 5508 5508 5508 5508 5509 5509 5509 5509 5509 5509 5508 5506 5505 5504 5503 5503 5504 5504 5505 5506 5508 5511 5514 5519 5524 5531 5536 5542
5509 5510 5510 5510 5511 5511 5512 5512 5511 5511 5511 5512 5512 5513 5513 5514 5515 5515 5516 5515 5515 5514 5513 5512 5512 5512 5513 5514 5515 5516 5519 5522 5526 5530 5535 5541 5548 5553
5513 5513 5514 5515 5515 5515 5515 5515 5515 5515 5515 5516 5517 5517 5518 5520 5521 5522 5522 5522 5523 5523 5522 5521 5521 5521 5522 5524 5526 5527 5529 5533 5537 5541 5546 5551 5557 5563
5516 5517 5518 5519 5519 5519 5519 5519 5519 5519 5519 5520 5521 5522 5524 5525 5527 5528 5529 5530 5530 5531 5531 5531 5530 5531 5533 5535 5537 5538 5540 5543 5547 5551 5556 5561 5567 5572
5520 5521 5522 5523 5523 5523 5523 5523 5523 5523 5523 5525 5526 5528 5529 5531 5533 5534 5535 5536 5537 5538 5539 5540 5540 5541 5542 5545 5547 5549 5552 5554 5557 5561 5565 5570 5575 5581
5524 5525 5526 5527 5527 5527 5527 5527 5527 5527 5528 5530 5531 5533 5535 5537 5539 5540 5542 5543 5544 5545 5547 5548 5549 5550 5551 5553 5555 5558 5561 5564 5567 5570 5574 5577 5581 5586